Hourly Data Report for July 19, 2021

WIARTON A
ONTARIO
Current Station Operator: NAVCAN

44°44'39.000" N
81°06'31.000" W
221.90 m
6119499
71633
YVV

Download Data

Hourly Data (July 2021)
Hourly Data Report for July 19, 2021
TIME
LST
Temp Definition
°C
Dew Point Definition
°C
Rel Hum Definition
%
Precip. Amount Definition
mm

Wind Dir Definition
10's deg

Wind Spd Definition
km/h
Visibility Definition
km
Stn Press Definition
kPa
Hmdx Definition


Wind Chill Definition


Weather Definition


00:00 16.9 16.7 99   19 7 12.9 99.32     LegendNANA
01:00 17.0 16.6 98   18 7 12.9 99.29     Cloudy
02:00 16.5 16.4 99   19 7 16.1 99.28     LegendNANA
03:00 16.8 16.4 98   22 6 12.9 99.25     LegendNANA
04:00 15.2 15.2 100   16 5 9.7 99.23     Fog
05:00 15.5 15.5 100   18 4 3.2 99.26     Fog
06:00 15.8 15.8 100   15 5 3.2 99.28     Fog
07:00 18.1 17.9 99   22 7 3.2 99.30     Fog
08:00 19.7 18.6 93   23 6 8.1 99.32     Fog
09:00 21.8 19.8 88   20 7 8.1 99.30 29   Fog
10:00 23.2 20.1 83   27 7 8.1 99.27 31   Haze
11:00 24.1 19.3 74   27 9 6.4 99.23 31   Haze
12:00 25.0 19.5 71   27 12 9.7 99.24 32   Haze
13:00 24.8 20.0 74   26 10 9.7 99.19 32   Haze
14:00 24.6 19.8 74   23 13 9.7 99.19 32   Haze
15:00 25.0 18.9 68   26 9 9.7 99.16 32   Haze
16:00 25.1 19.5 71   24 9 9.7 99.12 32   Haze
17:00 23.5 19.3 77   26 9 9.7 99.11 31   Haze
18:00 21.7 17.9 78   27 10 9.7 99.06 28   Haze
19:00 21.0 17.4 79   22 11 9.7 99.06 27   Haze
20:00 19.6 17.3 86   24 11 9.7 99.04     Haze
21:00 18.9 16.9 88   22 9 12.9 99.08     LegendNANA
22:00 18.5 17.2 92   21 8 12.9 99.07     Cloudy
23:00 18.4 17.5 94   21 7 12.9 99.06     LegendNANA

Notes on Data Quality.

Legend

  • E = Estimated
  • M = Missing
  • NA = Not Available*
  • [empty] = Indicates an unobserved value
Date modified: